Regional Weather Roundup
Issued by NWS Burlington, VT

Home | Current Version | Previous Version | Text Only | Print | Product List | Glossary On
Versions: 1 2 3 4 5 6 7 8 9 10 11 12 13 14 15 16 17 18 19 20 21 22 23 24 25 26 27 28 29 30 31 32 33 34 35 36 37 38 39 40 41 42 43 44 45 46 47 48 49 50
000
ASUS41 KBTV 192330
RWRBTV
VERMONT REGIONAL WEATHER ROUNDUP
NATIONAL WEATHER SERVICE BURLINGTON VT
700 PM EDT SAT AUG 19 2017

NOTE: "FAIR" INDICATES FEW OR NO CLOUDS BELOW 12,000 FEET WITH NO
SIGNIFICANT WEATHER AND/OR OBSTRUCTIONS TO VISIBILITY.

* THESE REPORTS ARE NOT UNDER NWS QUALITY CONTROL AND/OR DO NOT
  REPORT WEATHER SUCH AS PRECIPITATION AND FOG.

VTZ001>019-200000-
_____VERMONT_____


CITY           SKY/WX    TMP DP  RH WIND       PRES   REMARKS
BURLINGTON     MOCLDY    78  66  66 NW8       29.75S
MONTPELIER     CLEAR     75  63  66 SW9       29.82S
MORRISVILLE    MOCLDY    71  67  87 CALM      29.78S
ST. JOHNSBURY*   N/A     76  67  73 MISG      29.75R
LYNDONVILLE*   FAIR      70  64  81 W5        29.81S
MIDDLEBURY*    FAIR      72  64  76 SE3       29.78R
RUTLAND*       CLEAR     77  60  55 VRB7      29.81S
SPRINGFIELD    PTCLDY    77  60  55 CALM      29.80S
HIGHGATE*      MOCLDY    74  67  78 CALM      29.76R
NEWPORT*       CLOUDY    71  63  76 CALM      29.79S
BENNINGTON     CLEAR     76  67  73 CALM      29.82S
SUTTON*          N/A     68 N/A N/A MISG        N/A
ISLAND POND*     N/A     68 N/A N/A NW1         N/A
GALLUP MILLS*    N/A     70 N/A N/A MISG        N/A
UNION VILLAGE*   N/A     72 N/A N/A MISG        N/A
MT. MANSFIELD*   N/A     61 N/A N/A W25         N/A

_____LAKE CHAMPLAIN_____


CITY           SKY/WX    TMP DP  RH WIND       PRES   REMARKS
BURTON ISLAND*   N/A     77  63  61 W17         N/A
COLCHESTER RF*   N/A     79  61  53 W25         N/A
DIAMOND ISL*     N/A     77  64  65 W7          N/A

$$

NYZ007-026>031-035-052-083-087-200000-
_____NORTHERN NEW YORK_____


CITY           SKY/WX    TMP DP  RH WIND       PRES   REMARKS
PLATTSBURGH    PTCLDY    78  59  51 VRB6      29.75R
SARANAC LAKE   CLOUDY    67  58  72 W10G17    29.83S
MASSENA        PTCLDY    72  62  71 SW9       29.77S
OGDENSBURG*    FAIR      73  62  69 SW12G21   29.78R
POTSDAM*       CLEAR     70  64  83 SW8       29.79S
STARK FALLS*     N/A     68 N/A N/A SW6         N/A
WATERTOWN      CLOUDY    72  63  73 SW7       29.80S
FT DRUM        PTCLDY    72  60  66 W7        29.79F
ALBANY         MOCLDY    79  65  62 N6        29.80S
GLENS FALLS    CLEAR     77  61  57 SW6       29.79S

$$
NHZ002-005-011-200000-
_____NEW HAMPSHIRE_____


CITY           SKY/WX    TMP DP  RH WIND       PRES   REMARKS
LEBANON        PTCLDY    78  65  63 S7        29.78R
KEENE            N/A    N/A N/A N/A MISG        N/A
MT WASHINGTON  FOG       54  54 100 W23G32      N/A  VSB 0
PLYMOUTH       FAIR      75  64  69 CALM      29.78R
WHITEFIELD     MOCLDY    77  64  64 S3        29.78R

$$

_____REGIONAL QUEBEC LOCATIONS_____


CITY           SKY/WX    TMP DP  RH WIND       PRES   REMARKS
MONTREAL       PTCLDY    73  61  64 SW18G24   29.73R
QUEBEC CITY    MOCLDY    68  64  88 NE7       29.71S
SHERBROOKE     MOCLDY    70  64  83 W12G23    29.77R

_____REGIONAL ONTARIO LOCATIONS_____


CITY           SKY/WX    TMP DP  RH WIND       PRES   REMARKS
OTTAWA         MOCLDY    73  63  68 SW10G18   29.74S

______KEY______
VSB  - VISIBILITY IN MILES
WCI  - WIND CHILL INDEX
HX   - HEAT INDEX
$$
NNNN




USA.gov is the U.S. government's official web portal to all federal, state and local government web resources and services.